NIMBUS 6

Satellite information

Favourite Embed

Satellite Type and Status

PAYLOADIN ORBIT

Key statistics

Satellite NIMBUS 6 at a glance.

Uptime

18389

Days in orbit

Revolutions

≈ 13.4

Per day

Orbit

SSO

Sun Synchronous Orbit

Inclination

100.0

Latest

Satellite identification and parameters

Extended collection of information and parameters for NIMBUS 6.

Object identification

Identified? True

Debris? False

Object name: NIMBUS 6

International designator: 1975-052A

Object number (NORAD): 7924

Object ID (CCSDS): 7924

Country: UNITED STATES OF AMERICA (US)

Current information (Y/N): Y

RCS size: LARGE

Orbital parameters

Period: 107.398 minutes

Inclination: 100.0048 deg

SMA: 7484.397 km

Apoapsis: 1112.698 km

Periapsis: 1099.827 km

RAAN: 198.5306 deg

Eccentricy: 0.00085985

Argument of periapsis: 93.4739 deg

Mean anomaly: 16.9815 deg

Mean motion: 13.40810883 rev/day

Mean motion (dot): -0.00000017 rev/day2

B* drag term: 0.000050595357 1/REarth

Two-line elements (TLE)

Creation date: Oct. 15, 2025, 6:23 p.m.

Reference frame: TEME

Reference center: EARTH

Epoch: Oct. 15, 2025, 9:07 a.m. UTC

TLE line 0: 0 NIMBUS 6

TLE line 1: 1 07924U 75052A 25288.38007102 -.00000017 00000-0 50595-4 0 9994

TLE line 2: 2 07924 100.0048 198.5306 0008599 93.4739 16.9815 13.40810883463329

Live tracking on map

Real-time ground track for satellite NIMBUS 6.

In-orbit conjunctions

A list of the most updated potential collisions computed for object NIMBUS 6.

Target Orbit TCA Probability of collision Miss distance Type
DELTA 1 DEB SSO 2025-01-05 15:31:04 0.001147045 41.0 (m) DEBRIS

Associated space launch

Experimental meteorological satellite

NIMBUS 6 was lifted into orbit during the mission ‘Delta 2910 | Nimbus 6’, on board a Delta 2910 space rocket.

The launch took place on June 12, 1975, 8:12 a.m. from Space Launch Complex 2W.

For more information about the launch, click the button.

Launch to space Delta 2910 | Nimbus 6
Delta 2910 | Nimbus 6

Agency: N/A

Status: Launch Successful

Launch date: June 12, 1975, 8:12 a.m. UTC

Rocket: Delta 2910

Launch pad: Space Launch Complex 2W

Location: Vandenberg SFB, CA, USA

...

Latest news about this satellite

There are no fresh news available about this satellite. Check back as we update our databases every day.


Newsletter sign-up

Weekly statistics, charts and insights to help you stay on top of the space industry.